| time (UTC) | temp F | wind direction | speed MPH | gust MPH | rain 1hr in | rain 24hr in | rain mn in | humidity % | barometer mb |
| 20260905184537 | 52 | 68 | 0.0 | 0.0 | 0.00 | 0.02 | 0.02 | 90 | 1018.7 |
| 20260905183031 | 52 | 68 | 0.0 | 0.0 | 0.00 | 0.02 | 0.02 | 90 | 1018.7 |
| 20260905181530 | 52 | 68 | 0.0 | 0.0 | 0.00 | 0.02 | 0.02 | 90 | 1018.7 |
| 20260905180029 | 52 | 67 | 0.0 | 0.0 | 0.01 | 0.02 | 0.02 | 90 | 1018.7 |
| 20260905174535 | 52 | 68 | 0.0 | 0.0 | 0.01 | 0.02 | 0.02 | 92 | 1018.6 |
| 20260905173027 | 51 | 65 | 0.0 | 0.0 | 0.01 | 0.02 | 0.02 | 92 | 1018.4 |
| 20260905171525 | 51 | 68 | 0.0 | 0.0 | 0.01 | 0.02 | 0.02 | 93 | 1018.2 |
| 20260905170022 | 50 | 66 | 0.0 | 0.0 | 0.00 | 0.01 | 0.01 | 94 | 1017.9 |
| 20260905164522 | 51 | 64 | 0.0 | 1.0 | 0.00 | 0.01 | 0.01 | 93 | 1017.9 |
| 20260905163021 | 50 | 77 | 0.0 | 2.0 | 0.00 | 0.01 | 0.01 | 94 | 1017.7 |
| 20260905161521 | 50 | 79 | 0.0 | 2.0 | 0.00 | 0.01 | 0.01 | 94 | 1017.6 |
| 20260905160037 | 50 | 76 | 0.0 | 1.0 | 0.00 | 0.01 | 0.01 | 94 | 1017.3 |
| 20260905154519 | 50 | 68 | 0.0 | 2.0 | 0.00 | 0.01 | 0.01 | 95 | 1017.6 |
| 20260905153018 | 50 | 80 | 0.0 | 1.0 | 0.00 | 0.01 | 0.01 | 95 | 1017.4 |
| 20260905151518 | 49 | 66 | 0.0 | 2.0 | 0.00 | 0.01 | 0.01 | 95 | 1017.6 |
| 20260905150024 | 49 | 67 | 0.0 | 2.0 | 0.00 | 0.01 | 0.01 | 96 | 1017.5 |
| 20260905144536 | 49 | 75 | 0.0 | 1.0 | 0.00 | 0.01 | 0.01 | 96 | 1017.4 |
| 20260905143021 | 49 | 77 | 0.0 | 3.0 | 0.00 | 0.01 | 0.01 | 96 | 1017.4 |
| 20260905141520 | 49 | 78 | 0.0 | 1.0 | 0.00 | 0.01 | 0.01 | 96 | 1017.3 |
| 20260905140013 | 49 | 68 | 0.0 | 2.0 | 0.00 | 0.01 | 0.01 | 96 | 1017.4 |
| 20260905134516 | 49 | 77 | 0.0 | 1.0 | 0.00 | 0.01 | 0.01 | 96 | 1017.3 |
| 20260905133010 | 49 | 77 | 0.0 | 1.0 | 0.00 | 0.01 | 0.01 | 96 | 1017.0 |
| 20260905131509 | 49 | 84 | 0.0 | 2.0 | 0.00 | 0.01 | 0.01 | 96 | 1017.0 |
| 20260905130007 | 49 | 67 | 0.0 | 1.0 | 0.00 | 0.01 | 0.01 | 96 | 1016.9 |
| 20260905124507 | 49 | 70 | 0.0 | 1.0 | 0.00 | 0.01 | 0.01 | 96 | 1016.8 |
| 20260905123006 | 49 | 68 | 0.0 | 1.0 | 0.00 | 0.01 | 0.01 | 96 | 1016.7 |
| 20260905121505 | 49 | 84 | 0.0 | 1.0 | 0.00 | 0.01 | 0.01 | 96 | 1016.5 |
| 20260905120003 | 49 | 67 | 0.0 | 2.0 | 0.00 | 0.01 | 0.01 | 96 | 1016.0 |
| 20260905114501 | 49 | 68 | 0.0 | 0.0 | 0.00 | 0.01 | 0.01 | 96 | 1016.2 |
| 20260905113102 | 50 | 77 | 0.0 | 1.0 | 0.00 | 0.01 | 0.01 | 96 | 1015.9 |
| 20260905111600 | 50 | 75 | 0.0 | 0.0 | 0.00 | 0.01 | 0.01 | 96 | 1016.0 |
| 20260905110057 | 50 | 74 | 0.0 | 1.0 | 0.00 | 0.01 | 0.01 | 96 | 1015.8 |
| 20260905104556 | 50 | 68 | 0.0 | 2.0 | 0.00 | 0.01 | 0.01 | 96 | 1015.3 |
| 20260905103054 | 50 | 63 | 0.0 | 2.0 | 0.00 | 0.01 | 0.01 | 96 | 1015.1 |
| 20260905101553 | 50 | 69 | 0.0 | 2.0 | 0.00 | 0.01 | 0.01 | 96 | 1015.1 |
| 20260905100109 | 51 | 67 | 0.0 | 2.0 | 0.01 | 0.01 | 0.01 | 96 | 1015.0 |
| 20260905094604 | 51 | 68 | 0.0 | 0.0 | 0.01 | 0.01 | 0.01 | 96 | 1015.1 |
| 20260905093049 | 51 | 75 | 0.0 | 1.0 | 0.01 | 0.01 | 0.01 | 95 | 1015.3 |
| 20260905091558 | 51 | 76 | 0.0 | 0.0 | 0.01 | 0.01 | 0.01 | 95 | 1015.3 |
| 20260905090046 | 51 | 77 | 0.0 | 1.0 | 0.00 | 0.00 | 0.00 | 95 | 1015.0 |
| 20260905084545 | 51 | 83 | 0.0 | 1.0 | 0.00 | 0.00 | 0.00 | 95 | 1014.7 |
| 20260905083044 | 51 | 67 | 0.0 | 1.0 | 0.00 | 0.00 | 0.00 | 95 | 1015.1 |
| 20260905081544 | 51 | 67 | 0.0 | 3.0 | 0.00 | 0.00 | 0.00 | 95 | 1015.0 |
| 20260905080042 | 52 | 66 | 0.0 | 3.0 | 0.00 | 0.00 | 0.00 | 95 | 1014.9 |
| 20260905074552 | 52 | 59 | 0.0 | 3.0 | 0.00 | 0.00 | 0.00 | 95 | 1014.7 |
| 20260905073056 | 52 | 84 | 0.0 | 1.0 | 0.00 | 0.00 | 0.00 | 94 | 1014.6 |
| 20260905071535 | 52 | 67 | 0.0 | 1.0 | 0.00 | 0.00 | 0.00 | 94 | 1014.5 |
| 20260905070033 | 52 | 81 | 0.0 | 2.0 | 0.00 | 0.00 | 0.00 | 94 | 1014.2 |
| 20260905064530 | 52 | 45 | 0.0 | 3.0 | 0.00 | 0.00 | 0.00 | 93 | 1014.1 |
| 20260905063029 | 53 | 39 | 0.0 | 3.0 | 0.00 | 0.00 | 0.00 | 93 | 1014.0 |
| 20260905061526 | 53 | 345 | 1.0 | 2.0 | 0.00 | 0.00 | 0.00 | 92 | 1013.9 |
| 20260905060022 | 53 | 33 | 0.0 | 3.0 | 0.00 | 0.00 | 0.00 | 91 | 1013.6 |
| 20260905054521 | 53 | 30 | 0.0 | 2.0 | 0.00 | 0.00 | 0.00 | 91 | 1013.4 |
| 20260905053032 | 54 | 332 | 0.0 | 3.0 | 0.00 | 0.00 | 0.00 | 90 | 1013.3 |
| 20260905051519 | 54 | 343 | 0.0 | 3.0 | 0.00 | 0.00 | 0.00 | 89 | 1013.4 |
| 20260905050020 | 54 | 29 | 0.0 | 3.0 | 0.00 | 0.00 | 0.00 | 89 | 1013.2 |
| 20260905044521 | 55 | 328 | 0.0 | 4.0 | 0.00 | 0.00 | 0.00 | 89 | 1013.2 |
| 20260905043017 | 55 | 8 | 0.0 | 1.0 | 0.00 | 0.00 | 0.00 | 88 | 1013.1 |
| 20260905041517 | 56 | 63 | 0.0 | 2.0 | 0.00 | 0.00 | 0.00 | 88 | 1013.1 |
| 20260905040020 | 56 | 63 | 0.0 | 4.0 | 0.00 | 0.00 | 0.00 | 88 | 1013.1 |
| 20260905034514 | 56 | 67 | 0.0 | 2.0 | 0.00 | 0.00 | 0.00 | 88 | 1012.9 |
| 20260905033025 | 56 | 63 | 0.0 | 3.0 | 0.00 | 0.00 | 0.00 | 88 | 1012.6 |
| 20260905031520 | 56 | 69 | 0.0 | 3.0 | 0.00 | 0.00 | 0.00 | 88 | 1012.5 |
| 20260905030008 | 57 | 86 | 0.0 | 4.0 | 0.00 | 0.00 | 0.00 | 88 | 1012.1 |
| 20260905024506 | 57 | 66 | 0.0 | 3.0 | 0.00 | 0.00 | 0.00 | 87 | 1012.0 |
| 20260905023018 | 57 | 79 | 0.0 | 3.0 | 0.00 | 0.00 | 0.00 | 87 | 1011.8 |
| 20260905021603 | 58 | 67 | 0.0 | 3.0 | 0.00 | 0.00 | 0.00 | 87 | 1011.4 |
| 20260905020104 | 58 | 90 | 0.0 | 3.0 | 0.00 | 0.00 | 0.00 | 86 | 1011.0 |
| 20260905014602 | 59 | 81 | 1.0 | 3.0 | 0.00 | 0.00 | 0.00 | 86 | 1010.6 |
| 20260905013056 | 59 | 72 | 1.0 | 4.0 | 0.00 | 0.00 | 0.00 | 86 | 1010.6 |
| 20260905011559 | 60 | 34 | 0.0 | 3.0 | 0.00 | 0.00 | 0.00 | 85 | 1010.3 |
| 20260905010052 | 61 | 6 | 0.0 | 3.0 | 0.00 | 0.00 | 0.00 | 85 | 1010.0 |
| 20260905004551 | 62 | 25 | 0.0 | 3.0 | 0.00 | 0.00 | 0.00 | 83 | 1009.7 |
| 20260905003049 | 63 | 86 | 0.0 | 3.0 | 0.00 | 0.00 | 0.00 | 81 | 1009.6 |
| 20260905001548 | 63 | 64 | 0.0 | 2.0 | 0.00 | 0.00 | 0.00 | 81 | 1009.4 |
| 20260905000059 | 63 | 79 | 0.0 | 3.0 | 0.00 | 0.00 | 0.00 | 82 | 1009.2 |
| 20260904234543 | 63 | 77 | 0.0 | 2.0 | 0.00 | 0.00 | 0.00 | 83 | 1008.9 |
| 20260904233040 | 63 | 72 | 1.0 | 4.0 | 0.00 | 0.00 | 0.00 | 80 | 1008.4 |
| 20260904231537 | 65 | 65 | 0.0 | 4.0 | 0.00 | 0.00 | 0.00 | 77 | 1008.2 |
| 20260904230036 | 65 | 209 | 0.0 | 1.0 | 0.00 | 0.00 | 0.00 | 76 | 1007.9 |
| 20260904224534 | 65 | 61 | 0.0 | 1.0 | 0.00 | 0.00 | 0.00 | 77 | 1007.6 |
| 20260904223034 | 64 | 70 | 0.0 | 2.0 | 0.00 | 0.00 | 0.00 | 77 | 1007.5 |
| 20260904221533 | 65 | 68 | 0.0 | 0.0 | 0.00 | 0.00 | 0.00 | 76 | 1007.5 |
| 20260904220101 | 65 | 66 | 0.0 | 2.0 | 0.00 | 0.00 | 0.00 | 75 | 1007.3 |
| 20260904214529 | 64 | 66 | 0.0 | 0.0 | 0.00 | 0.00 | 0.00 | 76 | 1007.6 |
| 20260904213033 | 64 | 82 | 0.0 | 0.0 | 0.00 | 0.00 | 0.00 | 76 | 1007.6 |
| 20260904211528 | 65 | 82 | 0.0 | 0.0 | 0.00 | 0.00 | 0.00 | 74 | 1007.7 |
| 20260904210034 | 66 | 218 | 0.0 | 0.0 | 0.00 | 0.00 | 0.00 | 75 | 1007.8 |
| 20260904204524 | 63 | 207 | 0.0 | 1.0 | 0.00 | 0.00 | 0.00 | 79 | 1007.9 |
| 20260904203032 | 62 | 96 | 0.0 | 1.0 | 0.00 | 0.00 | 0.00 | 80 | 1007.9 |
| 20260904201519 | 62 | 94 | 0.0 | 1.0 | 0.00 | 0.00 | 0.00 | 80 | 1007.7 |
| 20260904200021 | 62 | 74 | 0.0 | 1.0 | 0.00 | 0.00 | 0.00 | 79 | 1007.6 |
| 20260904194541 | 62 | 73 | 0.0 | 0.0 | 0.00 | 0.00 | 0.00 | 78 | 1007.4 |
| 20260904193017 | 62 | 212 | 0.0 | 0.0 | 0.00 | 0.00 | 0.00 | 78 | 1007.4 |
| 20260904191523 | 63 | 94 | 0.0 | 1.0 | 0.00 | 0.00 | 0.00 | 77 | 1007.2 |
| 20260904190013 | 62 | 219 | 0.0 | 0.0 | 0.00 | 0.00 | 0.00 | 76 | 1007.2 |